TimeCST,TemperatureF,Dew PointF,Humidity,Sea Level PressureIn,VisibilityMPH,Wind Direction,Wind SpeedMPH,Gust SpeedMPH,PrecipitationIn,Events,Conditions,WindDirDegrees,DateUTC
12:15 AM,15.8,6.8,68,30.31,10.0,ENE,5.8,-,N/A,,Unknown,60,2013-01-23 06:15:00
12:35 AM,17.6,6.8,63,30.30,10.0,ENE,4.6,-,N/A,,Unknown,70,2013-01-23 06:35:00
12:55 AM,17.6,6.8,63,30.30,10.0,ENE,4.6,-,N/A,,Unknown,70,2013-01-23 06:55:00
1:15 AM,17.6,6.8,63,30.29,10.0,ENE,4.6,-,N/A,,Unknown,60,2013-01-23 07:15:00
1:35 AM,15.8,6.8,68,30.29,10.0,NE,5.8,-,N/A,,Unknown,50,2013-01-23 07:35:00
1:55 AM,15.8,6.8,68,30.29,10.0,ENE,4.6,-,N/A,,Unknown,60,2013-01-23 07:55:00
2:15 AM,15.8,6.8,68,30.30,10.0,NE,3.5,-,N/A,,Unknown,50,2013-01-23 08:15:00
2:35 AM,15.8,6.8,68,30.29,10.0,ENE,3.5,-,N/A,,Unknown,70,2013-01-23 08:35:00
2:55 AM,15.8,6.8,68,30.29,10.0,ENE,3.5,-,N/A,,Unknown,60,2013-01-23 08:55:00
3:15 AM,15.8,6.8,68,30.28,10.0,ENE,4.6,-,N/A,,Unknown,60,2013-01-23 09:15:00
3:35 AM,15.8,6.8,68,30.27,10.0,East,3.5,-,N/A,,Unknown,80,2013-01-23 09:35:00
3:55 AM,15.8,8.6,73,30.27,10.0,Calm,Calm,-,N/A,,Unknown,0,2013-01-23 09:55:00
4:15 AM,15.8,6.8,68,30.27,10.0,ESE,3.5,-,N/A,,Unknown,110,2013-01-23 10:15:00
4:35 AM,15.8,6.8,68,30.26,10.0,ESE,3.5,-,N/A,,Unknown,110,2013-01-23 10:35:00
4:55 AM,15.8,6.8,68,30.26,10.0,Calm,Calm,-,N/A,,Unknown,0,2013-01-23 10:55:00
5:15 AM,15.8,6.8,68,30.26,10.0,East,3.5,-,N/A,,Unknown,90,2013-01-23 11:15:00
5:35 AM,15.8,6.8,68,30.26,10.0,Calm,Calm,-,N/A,,Unknown,0,2013-01-23 11:35:00
6:15 AM,15.8,6.8,68,30.27,10.0,Calm,Calm,-,N/A,,Unknown,0,2013-01-23 12:15:00
6:35 AM,15.8,6.8,68,30.27,10.0,Calm,Calm,-,N/A,,Unknown,0,2013-01-23 12:35:00
6:55 AM,17.6,10.4,73,30.27,10.0,SSE,3.5,-,N/A,,Unknown,160,2013-01-23 12:55:00
7:15 AM,17.6,10.4,73,30.27,10.0,South,3.5,-,N/A,,Unknown,170,2013-01-23 13:15:00
7:35 AM,17.6,10.4,73,30.26,10.0,South,3.5,-,N/A,,Unknown,170,2013-01-23 13:35:00
7:55 AM,17.6,12.2,79,30.26,10.0,Calm,Calm,-,N/A,,Unknown,0,2013-01-23 13:55:00
8:15 AM,19.4,12.2,74,30.26,10.0,South,3.5,-,N/A,,Unknown,190,2013-01-23 14:15:00
8:35 AM,21.2,14.0,74,30.27,10.0,Calm,Calm,-,N/A,,Unknown,0,2013-01-23 14:35:00
8:55 AM,23.0,15.8,74,30.26,10.0,South,3.5,-,N/A,,Unknown,180,2013-01-23 14:55:00
9:15 AM,24.8,15.8,69,30.26,10.0,South,3.5,-,N/A,,Unknown,180,2013-01-23 15:15:00
9:35 AM,26.6,15.8,64,30.26,10.0,Calm,Calm,-,N/A,,Unknown,0,2013-01-23 15:35:00
9:55 AM,28.4,19.4,69,30.26,10.0,SW,4.6,-,N/A,,Unknown,220,2013-01-23 15:55:00
10:15 AM,32.0,19.4,60,30.26,10.0,SW,3.5,-,N/A,,Unknown,230,2013-01-23 16:15:00
10:35 AM,35.6,21.2,56,30.26,10.0,Calm,Calm,-,N/A,,Unknown,0,2013-01-23 16:35:00
10:55 AM,37.4,21.2,52,30.24,10.0,Calm,Calm,-,N/A,,Unknown,0,2013-01-23 16:55:00
11:15 AM,39.2,21.2,49,30.25,10.0,West,3.5,-,N/A,,Unknown,260,2013-01-23 17:15:00
11:35 AM,42.8,23.0,46,30.24,10.0,West,6.9,-,N/A,,Unknown,270,2013-01-23 17:35:00
11:55 AM,42.8,24.8,49,30.22,10.0,West,6.9,-,N/A,,Unknown,260,2013-01-23 17:55:00
12:15 PM,44.6,24.8,46,30.21,10.0,West,9.2,-,N/A,,Unknown,260,2013-01-23 18:15:00
12:35 PM,46.4,24.8,43,30.20,10.0,WNW,8.1,-,N/A,,Unknown,300,2013-01-23 18:35:00
12:55 PM,46.4,24.8,43,30.18,10.0,West,5.8,-,N/A,,Unknown,260,2013-01-23 18:55:00
1:15 PM,46.4,24.8,43,30.17,10.0,West,6.9,-,N/A,,Unknown,260,2013-01-23 19:15:00
1:35 PM,48.2,24.8,40,30.17,10.0,NW,4.6,-,N/A,,Unknown,320,2013-01-23 19:35:00
1:55 PM,48.2,24.8,40,30.17,10.0,WNW,5.8,-,N/A,,Unknown,300,2013-01-23 19:55:00
2:15 PM,48.2,24.8,40,30.17,10.0,NW,6.9,-,N/A,,Unknown,320,2013-01-23 20:15:00
2:35 PM,48.2,24.8,40,30.17,10.0,West,3.5,-,N/A,,Unknown,260,2013-01-23 20:35:00
2:55 PM,48.2,24.8,40,30.17,10.0,NW,5.8,-,N/A,,Unknown,320,2013-01-23 20:55:00
3:15 PM,50.0,24.8,37,30.16,10.0,WNW,5.8,-,N/A,,Unknown,300,2013-01-23 21:15:00
3:35 PM,50.0,24.8,37,30.17,10.0,NW,5.8,-,N/A,,Unknown,310,2013-01-23 21:35:00
3:55 PM,50.0,24.8,37,30.17,10.0,NW,5.8,-,N/A,,Unknown,310,2013-01-23 21:55:00
4:15 PM,50.0,23.0,35,30.17,10.0,NNW,5.8,-,N/A,,Unknown,330,2013-01-23 22:15:00
4:35 PM,48.2,23.0,37,30.17,10.0,NW,5.8,-,N/A,,Unknown,310,2013-01-23 22:35:00
4:55 PM,48.2,21.2,34,30.18,10.0,NNW,4.6,-,N/A,,Unknown,330,2013-01-23 22:55:00
5:15 PM,46.4,21.2,37,30.19,10.0,NNW,4.6,-,N/A,,Unknown,340,2013-01-23 23:15:00
5:35 PM,44.6,21.2,39,30.19,10.0,NNW,4.6,-,N/A,,Unknown,340,2013-01-23 23:35:00
5:55 PM,42.8,21.2,42,30.21,10.0,North,5.8,-,N/A,,Unknown,360,2013-01-23 23:55:00
6:15 PM,42.8,21.2,42,30.21,10.0,North,4.6,-,N/A,,Unknown,360,2013-01-24 00:15:00
6:35 PM,39.2,21.2,49,30.22,10.0,North,5.8,-,N/A,,Unknown,10,2013-01-24 00:35:00
6:55 PM,39.2,21.2,49,30.24,10.0,North,5.8,-,N/A,,Unknown,360,2013-01-24 00:55:00
7:15 PM,39.2,19.4,45,30.25,10.0,North,5.8,-,N/A,,Unknown,10,2013-01-24 01:15:00
7:35 PM,39.2,19.4,45,30.26,10.0,North,4.6,-,N/A,,Unknown,350,2013-01-24 01:35:00
7:55 PM,37.4,19.4,48,30.26,10.0,North,4.6,-,N/A,,Unknown,350,2013-01-24 01:55:00
8:15 PM,37.4,19.4,48,30.27,10.0,North,4.6,-,N/A,,Unknown,360,2013-01-24 02:15:00
8:35 PM,37.4,19.4,48,30.28,10.0,North,4.6,-,N/A,,Unknown,10,2013-01-24 02:35:00
8:55 PM,37.4,19.4,48,30.29,10.0,North,6.9,-,N/A,,Unknown,10,2013-01-24 02:55:00
9:15 PM,35.6,19.4,52,30.30,10.0,North,5.8,-,N/A,,Unknown,10,2013-01-24 03:15:00
9:35 PM,35.6,17.6,48,30.32,10.0,North,6.9,-,N/A,,Unknown,360,2013-01-24 03:35:00
10:15 PM,33.8,17.6,52,30.33,10.0,North,6.9,-,N/A,,Unknown,10,2013-01-24 04:15:00
10:35 PM,33.8,17.6,52,30.34,10.0,NNE,6.9,-,N/A,,Unknown,20,2013-01-24 04:35:00
10:55 PM,32.0,15.8,51,30.35,10.0,NNE,6.9,-,N/A,,Unknown,30,2013-01-24 04:55:00
11:15 PM,30.2,15.8,55,30.37,10.0,North,4.6,-,N/A,,Unknown,360,2013-01-24 05:15:00
11:35 PM,30.2,15.8,55,30.37,10.0,North,5.8,-,N/A,,Unknown,10,2013-01-24 05:35:00
11:55 PM,30.2,14.0,51,30.38,10.0,North,4.6,-,N/A,,Unknown,360,2013-01-24 05:55:00